Time,TemperatureF,DewpointF,PressureIn,WindDirection,WindDirectionDegrees,WindSpeedMPH,WindSpeedGustMPH,Humidity,HourlyPrecipIn,Conditions,Clouds,dailyrainin,SolarRadiationWatts/m^2,SoftwareType,DateUTC
2013-07-02 00:02:00,72.0,70.0,-100.00,SE,124,0.0,5.0,94,0.02,,,0.27,0.000000,,2013-07-02 04:02:00,
2013-07-02 00:32:00,72.0,70.0,-100.00,ESE,106,1.0,4.0,95,0.02,,,0.29,0.000000,,2013-07-02 04:32:00,
2013-07-02 00:42:00,72.0,70.0,-100.00,ESE,106,1.0,4.0,95,0.02,,,0.29,0.000000,,2013-07-02 04:42:00,
2013-07-02 00:54:00,72.0,70.0,-100.00,ESE,106,1.0,4.0,95,0.02,,,0.29,0.000000,,2013-07-02 04:54:00,
2013-07-02 01:02:00,72.0,70.0,-100.00,ESE,106,1.0,4.0,95,0.02,,,0.29,0.000000,,2013-07-02 05:02:00,
2013-07-02 01:32:00,73.0,71.0,-100.00,South,174,0.0,7.0,95,0.02,,,0.31,0.000000,,2013-07-02 05:32:00,
2013-07-02 01:43:00,73.0,71.0,-100.00,South,174,0.0,7.0,95,0.02,,,0.31,0.000000,,2013-07-02 05:43:00,
2013-07-02 01:53:00,73.0,71.0,-100.00,South,174,0.0,7.0,95,0.02,,,0.31,0.000000,,2013-07-02 05:53:00,
2013-07-02 02:01:00,73.0,71.0,-100.00,South,174,0.0,7.0,95,0.02,,,0.31,0.000000,,2013-07-02 06:01:00,
2013-07-02 02:34:00,73.0,71.0,-100.00,South,186,0.0,0.0,95,0.01,,,0.32,0.000000,,2013-07-02 06:34:00,
2013-07-02 02:43:00,73.0,71.0,-100.00,South,186,0.0,0.0,95,0.01,,,0.32,0.000000,,2013-07-02 06:43:00,
2013-07-02 02:53:00,73.0,71.0,-100.00,South,186,0.0,0.0,95,0.01,,,0.32,0.000000,,2013-07-02 06:53:00,
2013-07-02 03:01:00,73.0,71.0,-100.00,South,186,0.0,0.0,95,0.01,,,0.32,0.000000,,2013-07-02 07:01:00,
2013-07-02 03:34:00,73.0,72.0,-100.00,ESE,105,1.0,5.0,96,0.02,,,0.34,0.000000,,2013-07-02 07:34:00,
2013-07-02 03:44:00,73.0,72.0,-100.00,ESE,105,1.0,5.0,96,0.02,,,0.34,0.000000,,2013-07-02 07:44:00,
2013-07-02 03:53:00,73.0,72.0,-100.00,ESE,105,1.0,5.0,96,0.02,,,0.34,0.000000,,2013-07-02 07:53:00,
2013-07-02 04:02:00,73.0,72.0,-100.00,ESE,105,1.0,5.0,96,0.02,,,0.34,0.000000,,2013-07-02 08:02:00,
2013-07-02 04:33:00,73.0,71.0,-100.00,ESE,106,0.0,0.0,95,0.01,,,0.35,0.000000,,2013-07-02 08:33:00,
2013-07-02 04:44:00,73.0,71.0,-100.00,ESE,106,0.0,0.0,95,0.01,,,0.35,0.000000,,2013-07-02 08:44:00,
2013-07-02 04:53:00,73.0,71.0,-100.00,ESE,106,0.0,0.0,95,0.01,,,0.35,0.000000,,2013-07-02 08:53:00,
2013-07-02 05:02:00,73.0,71.0,-100.00,ESE,106,0.0,0.0,95,0.01,,,0.35,0.000000,,2013-07-02 09:02:00,
2013-07-02 05:33:00,73.0,72.0,-100.00,SE,124,0.0,4.0,96,0.01,,,0.36,0.000000,,2013-07-02 09:33:00,
2013-07-02 05:43:00,73.0,72.0,-100.00,SE,124,0.0,4.0,96,0.01,,,0.36,0.000000,,2013-07-02 09:43:00,
2013-07-02 05:52:00,73.0,72.0,-100.00,SE,124,0.0,4.0,96,0.01,,,0.36,0.000000,,2013-07-02 09:52:00,
2013-07-02 06:01:00,73.0,72.0,-100.00,SE,124,0.0,4.0,96,0.01,,,0.36,0.000000,,2013-07-02 10:01:00,
2013-07-02 06:33:00,73.0,72.0,-100.00,East,83,0.0,0.0,96,0.00,,,0.36,0.000000,,2013-07-02 10:33:00,
2013-07-02 06:44:00,73.0,72.0,-100.00,East,83,0.0,0.0,96,0.00,,,0.36,0.000000,,2013-07-02 10:44:00,
2013-07-02 06:52:00,73.0,72.0,-100.00,East,83,0.0,0.0,96,0.00,,,0.36,0.000000,,2013-07-02 10:52:00,
2013-07-02 07:01:00,73.0,72.0,-100.00,East,83,0.0,0.0,96,0.00,,,0.36,0.000000,,2013-07-02 11:01:00,
2013-07-02 07:33:00,74.0,73.0,-100.00,ESE,116,0.0,0.0,96,0.01,,,0.37,4.000000,,2013-07-02 11:33:00,
2013-07-02 07:42:00,74.0,73.0,-100.00,ESE,116,0.0,0.0,96,0.01,,,0.37,4.000000,,2013-07-02 11:42:00,
2013-07-02 07:52:00,74.0,73.0,-100.00,ESE,116,0.0,0.0,96,0.01,,,0.37,4.000000,,2013-07-02 11:52:00,
2013-07-02 08:01:00,74.0,73.0,-100.00,ESE,116,0.0,0.0,96,0.01,,,0.37,4.000000,,2013-07-02 12:01:00,
2013-07-02 08:33:00,75.0,73.0,-100.00,ESE,110,3.0,8.0,95,0.01,,,0.38,42.000000,,2013-07-02 12:33:00,
2013-07-02 08:43:00,75.0,73.0,-100.00,ESE,110,3.0,8.0,95,0.01,,,0.38,42.000000,,2013-07-02 12:43:00,
2013-07-02 08:52:00,75.0,73.0,-100.00,ESE,110,3.0,8.0,95,0.01,,,0.38,42.000000,,2013-07-02 12:52:00,
2013-07-02 09:01:00,75.0,73.0,-100.00,ESE,110,3.0,8.0,95,0.01,,,0.38,42.000000,,2013-07-02 13:01:00,
2013-07-02 09:43:00,75.0,73.0,-100.00,ESE,103,1.0,8.0,93,0.01,,,0.39,89.000000,,2013-07-02 13:43:00,
2013-07-02 09:52:00,75.0,73.0,-100.00,ESE,103,1.0,8.0,93,0.01,,,0.39,89.000000,,2013-07-02 13:52:00,
2013-07-02 10:02:00,75.0,73.0,-100.00,ESE,103,1.0,8.0,93,0.01,,,0.39,89.000000,,2013-07-02 14:02:00,
2013-07-02 10:43:00,77.0,74.0,-100.00,SE,125,1.0,8.0,91,0.02,,,0.41,208.000000,,2013-07-02 14:43:00,
2013-07-02 10:53:00,77.0,74.0,-100.00,SE,125,1.0,8.0,91,0.02,,,0.41,208.000000,,2013-07-02 14:53:00,
2013-07-02 11:02:00,77.0,74.0,-100.00,SE,125,1.0,8.0,91,0.02,,,0.41,208.000000,,2013-07-02 15:02:00,
2013-07-02 11:33:00,78.0,74.0,-100.00,ESE,122,4.0,8.0,87,0.03,,,0.44,207.000000,,2013-07-02 15:33:00,
2013-07-02 11:44:00,78.0,74.0,-100.00,ESE,122,4.0,8.0,87,0.03,,,0.44,207.000000,,2013-07-02 15:44:00,
2013-07-02 11:53:00,78.0,74.0,-100.00,ESE,122,4.0,8.0,87,0.03,,,0.44,207.000000,,2013-07-02 15:53:00,
2013-07-02 12:01:00,78.0,74.0,-100.00,ESE,122,4.0,8.0,87,0.03,,,0.44,207.000000,,2013-07-02 16:01:00,
2013-07-02 12:43:00,79.0,75.0,-100.00,ESE,113,3.0,7.0,89,0.05,,,0.49,233.000000,,2013-07-02 16:43:00,
2013-07-02 12:52:00,79.0,75.0,-100.00,ESE,113,3.0,7.0,89,0.05,,,0.49,233.000000,,2013-07-02 16:52:00,
2013-07-02 13:02:00,79.0,75.0,-100.00,ESE,113,3.0,7.0,89,0.05,,,0.49,233.000000,,2013-07-02 17:02:00,
2013-07-02 13:43:00,82.0,78.0,-100.00,SE,134,2.0,9.0,87,0.01,,,0.46,380.000000,,2013-07-02 17:43:00,
2013-07-02 13:53:00,82.0,78.0,-100.00,SE,134,2.0,9.0,87,0.01,,,0.46,380.000000,,2013-07-02 17:53:00,
2013-07-02 14:02:00,82.0,78.0,-100.00,SE,134,2.0,9.0,87,0.01,,,0.46,380.000000,,2013-07-02 18:02:00,
2013-07-02 14:34:00,86.0,75.0,-100.00,SSW,192,4.0,9.0,70,0.00,,,0.37,761.000000,,2013-07-02 18:34:00,
2013-07-02 14:43:00,86.0,75.0,-100.00,SSW,192,4.0,9.0,70,0.00,,,0.37,761.000000,,2013-07-02 18:43:00,
2013-07-02 14:53:00,86.0,75.0,-100.00,SSW,192,4.0,9.0,70,0.00,,,0.37,761.000000,,2013-07-02 18:53:00,
2013-07-02 15:01:00,86.0,75.0,-100.00,SSW,192,4.0,9.0,70,0.00,,,0.37,761.000000,,2013-07-02 19:01:00,
2013-07-02 15:34:00,86.0,77.0,-100.00,SE,129,3.0,7.0,74,0.00,,,0.37,533.000000,,2013-07-02 19:34:00,
2013-07-02 15:43:00,86.0,77.0,-100.00,SE,129,3.0,7.0,74,0.00,,,0.37,533.000000,,2013-07-02 19:43:00,
2013-07-02 15:53:00,86.0,77.0,-100.00,SE,129,3.0,7.0,74,0.00,,,0.37,533.000000,,2013-07-02 19:53:00,
2013-07-02 16:02:00,86.0,77.0,-100.00,SE,129,3.0,7.0,74,0.00,,,0.37,533.000000,,2013-07-02 20:02:00,
2013-07-02 16:33:00,85.0,72.0,-100.00,ESE,105,4.0,10.0,66,0.00,,,0.37,478.000000,,2013-07-02 20:33:00,
2013-07-02 16:43:00,85.0,72.0,-100.00,ESE,105,4.0,10.0,66,0.00,,,0.37,478.000000,,2013-07-02 20:43:00,
2013-07-02 16:52:00,85.0,72.0,-100.00,ESE,105,4.0,10.0,66,0.00,,,0.37,478.000000,,2013-07-02 20:52:00,
2013-07-02 17:02:00,85.0,72.0,-100.00,ESE,105,4.0,10.0,66,0.00,,,0.37,478.000000,,2013-07-02 21:02:00,
2013-07-02 17:44:00,82.0,74.0,-100.00,ESE,117,6.0,11.0,77,0.00,,,0.30,369.000000,,2013-07-02 21:44:00,
2013-07-02 17:52:00,82.0,74.0,-100.00,ESE,117,6.0,11.0,77,0.00,,,0.30,369.000000,,2013-07-02 21:52:00,
2013-07-02 18:01:00,82.0,74.0,-100.00,ESE,117,6.0,11.0,77,0.00,,,0.30,369.000000,,2013-07-02 22:01:00,
2013-07-02 18:34:00,78.0,73.0,-100.00,South,174,2.0,16.0,85,0.01,,,0.28,24.000000,,2013-07-02 22:34:00,
2013-07-02 18:43:00,78.0,73.0,-100.00,South,174,2.0,16.0,85,0.01,,,0.28,24.000000,,2013-07-02 22:43:00,
2013-07-02 18:53:00,78.0,73.0,-100.00,South,174,2.0,16.0,85,0.01,,,0.28,24.000000,,2013-07-02 22:53:00,
2013-07-02 19:01:00,78.0,73.0,-100.00,South,174,2.0,16.0,85,0.01,,,0.28,24.000000,,2013-07-02 23:01:00,
2013-07-02 19:22:00,76.0,74.0,-100.00,West,263,1.0,5.0,93,0.01,,,0.28,39.000000,,2013-07-02 23:22:00,
2013-07-02 19:33:00,76.0,74.0,-100.00,West,263,1.0,5.0,93,0.01,,,0.28,39.000000,,2013-07-02 23:33:00,
2013-07-02 19:44:00,76.0,74.0,-100.00,West,263,1.0,5.0,93,0.01,,,0.28,39.000000,,2013-07-02 23:44:00,
2013-07-02 19:52:00,76.0,74.0,-100.00,West,263,1.0,5.0,93,0.01,,,0.28,39.000000,,2013-07-02 23:52:00,
2013-07-02 20:01:00,76.0,74.0,-100.00,West,263,1.0,5.0,93,0.01,,,0.28,39.000000,,2013-07-03 00:01:00,
2013-07-02 20:33:00,75.0,73.0,-100.00,SSE,156,1.0,5.0,93,0.00,,,0.28,21.000000,,2013-07-03 00:33:00,
2013-07-02 20:44:00,75.0,73.0,-100.00,SSE,156,1.0,5.0,93,0.00,,,0.28,21.000000,,2013-07-03 00:44:00,
2013-07-02 20:52:00,75.0,73.0,-100.00,SSE,156,1.0,5.0,93,0.00,,,0.28,21.000000,,2013-07-03 00:52:00,
2013-07-02 21:01:00,75.0,73.0,-100.00,SSE,156,1.0,5.0,93,0.00,,,0.28,21.000000,,2013-07-03 01:01:00,
2013-07-02 21:04:00,74.0,72.0,-100.00,SE,140,1.0,4.0,94,0.01,,,0.29,1.000000,,2013-07-03 01:04:00,
2013-07-02 21:33:00,74.0,72.0,-100.00,SE,140,1.0,4.0,94,0.01,,,0.29,1.000000,,2013-07-03 01:33:00,
2013-07-02 21:43:00,74.0,72.0,-100.00,SE,140,1.0,4.0,94,0.01,,,0.29,1.000000,,2013-07-03 01:43:00,
2013-07-02 21:59:00,74.0,72.0,-100.00,SE,140,1.0,4.0,94,0.01,,,0.29,1.000000,,2013-07-03 01:59:00,
2013-07-02 22:04:00,74.0,72.0,-100.00,ENE,76,0.0,2.0,94,0.00,,,0.28,0.000000,,2013-07-03 02:04:00,
2013-07-02 22:40:00,74.0,72.0,-100.00,ENE,76,0.0,2.0,94,0.00,,,0.28,0.000000,,2013-07-03 02:40:00,
2013-07-02 22:46:00,74.0,72.0,-100.00,ENE,76,0.0,2.0,94,0.00,,,0.28,0.000000,,2013-07-03 02:46:00,
2013-07-02 22:59:00,74.0,72.0,-100.00,ENE,76,0.0,2.0,94,0.00,,,0.28,0.000000,,2013-07-03 02:59:00,
2013-07-02 23:36:00,74.0,72.0,-100.00,SE,126,1.0,3.0,95,0.00,,,0.26,0.000000,,2013-07-03 03:36:00,
2013-07-02 23:49:00,74.0,72.0,-100.00,SE,126,1.0,3.0,95,0.00,,,0.26,0.000000,,2013-07-03 03:49:00,